Location: ??
(34.9170°N, 135.5016°E)
Time: 14:42:18
(UTC+00:00)

S-56A Canister/Altair - Pass Details

Date: 09 March 2021
Orbit: 632 x 2500 km, 38.9° (Epoch: 16 April)

Event Time Altitude Azimuth Distance (km) Brightness Sun altitude
Rises 11:04:43 0° 288° (WNW) 6,158 13.5 -26.1°
Reaches altitude 10° 11:10:13 10° 275° (W) 5,033 12.6 -27.2°
Maximum altitude 11:19:39 22° 233° (SW) 3,760 11.3 -29.1°
Drops below altitude 10° 11:27:35 10° 189° (S) 4,120 11.1 -30.6°
Enters shadow 11:30:41 - 177° (S) 4,632 11.3 -31.2°
